Theta_e
309 309 310 310 310 310 310 310 310 310 311 311 310 310 310 311 310 310 310 309 306 306 308 308 308 308 308 308 308 309 309 310 308 308 307 306 305 304 304 303 304 304 305
309 309 310 310 310 310 310 310 311 311 311 311 311 311 311 310 310 309 309 309 308 308 307 308 308 307 307 307 308 308 309 310 308 312 308 305 304 303 302 302 302 302 303
309 309 309 309 309 309 309 310 310 311 311 311 311 310 310 309 308 308 308 308 309 308 307 307 308 307 307 307 308 307 308 309 308 310 307 305 304 303 302 301 300 300 301
308 309 309 309 309 309 309 309 309 309 310 310 310 309 309 308 307 307 307 308 309 308 307 308 307 307 306 305 306 306 307 309 308 308 306 306 305 303 302 301 300 300 300
308 308 308 308 308 308 308 308 308 308 309 309 309 308 308 307 304 304 306 308 308 308 307 307 307 306 305 304 304 306 307 307 308 308 307 306 305 306 303 301 301 300 300
308 308 308 308 308 308 308 308 308 308 308 308 308 308 308 307 304 303 303 307 307 306 307 304 306 305 305 305 304 305 305 306 307 308 307 307 306 304 303 303 303 304 302
307 307 307 307 307 308 308 307 307 307 307 306 306 306 305 305 302 301 303 306 307 306 304 305 306 306 306 305 306 307 308 306 306 308 307 308 307 305 304 304 303 301 300
306 306 306 307 307 307 307 306 306 305 305 305 304 303 302 302 301 300 303 306 307 306 305 305 305 306 305 305 306 306 306 307 308 308 307 307 307 305 306 303 301 300 300
305 305 306 306 306 306 304 303 303 304 304 302 301 301 300 302 301 301 303 306 306 305 305 305 303 303 305 305 306 305 304 305 308 307 307 307 306 306 304 304 304 302 300
305 305 306 306 303 302 302 302 303 303 302 301 300 300 301 301 300 301 303 304 305 304 303 302 303 304 305 305 305 305 304 304 305 306 306 306 307 305 304 305 305 303 302
305 305 305 303 303 303 302 302 301 299 299 300 300 300 300 300 301 300 301 302 301 301 302 302 302 303 304 305 305 305 304 304 305 305 304 305 304 303 303 304 305 306 305
305 305 303 303 302 302 301 300 299 299 299 299 300 301 302 302 301 301 301 302 302 302 302 302 302 303 305 305 305 305 305 306 306 305 303 304 302 303 301 301 300 301 304
305 303 302 302 301 300 300 300 299 298 299 300 301 302 302 303 302 302 302 302 303 302 302 302 302 303 303 304 304 305 305 305 304 302 302 300 300 301 299 299 301 301 301
303 303 303 301 301 300 300 300 300 299 299 300 301 303 303 301 301 302 303 303 303 303 303 304 305 305 304 305 305 302 301 301 299 299 301 301 301 302 304 302 301 301 301
302 302 301 301 301 301 301 300 300 299 299 301 301 301 301 301 301 302 303 303 305 305 306 306 305 305 304 304 304 302 302 299 300 302 302 302 304 304 305 305 305 305 305
302 302 301 302 302 302 301 301 300 301 301 301 301 302 302 302 303 303 304 304 305 305 304 303 303 302 302 303 302 302 302 302 305 306 306 305 305 305 305 306 306 307 307
302 302 302 302 302 303 304 303 304 302 302 301 302 303 303 303 304 304 304 304 303 303 303 303 303 304 307 308 307 307 306 306 306 305 306 306 306 306 307 307 307 307 307
303 303 303 303 303 305 305 305 305 304 304 304 303 303 304 304 304 305 305 306 305 304 304 304 305 307 307 307 307 307 308 308 308 308 308 308 308 308 309 309 309 309 309
304 303 303 303 304 303 303 303 303 303 302 303 304 305 305 306 306 305 305 306 307 307 307 308 309 309 309 309 309 309 309 309 310 310 311 311 311 311 311 310 309 308 309
305 305 306 306 304 304 304 303 304 304 303 304 305 305 309 310 309 309 309 309 309 310 310 310 310 310 310 310 310 311 311 311 311 311 311 311 312 311 311 311 310 310 310
308 307 306 304 304 304 304 304 304 304 304 307 308 307 309 309 309 309 310 310 310 310 310 310 310 310 311 311 311 311 311 311 311 312 311 310 310 310 311 311 310 311 310
309 309 306 304 305 305 305 306 306 306 307 308 309 308 309 309 309 309 309 308 309 309 309 309 309 309 309 310 310 310 310 310 309 309 308 307 307 308 309 310 310 309 309
309 307 306 307 309 309 309 308 306 307 308 308 308 309 308 308 308 307 307 306 306 306 306 306 306 306 306 306 305 305 307 307 306 305 304 304 304 306 307 308 307 306 304
309 310 309 308 309 310 308 307 304 302 305 306 306 306 306 306 305 304 304 303 303 304 304 303 302 301 301 301 300 299 298 301 303 303 303 303 303 303 304 304 304 303 303
306 308 308 309 309 308 305 301 303 305 306 306 305 304 303 303 303 302 302 302 301 301 301 301 301 300 300 299 298 297 297 298 300 302 302 302 302 302 302 302 302 303 303
306 307 307 308 306 304 304 305 307 306 304 303 302 302 302 302 301 301 301 301 301 301 301 300 299 299 299 297 297 297 298 299 300 301 302 302 302 302 303 303 303 302 303
Wind_Speed
10 11 11 11 10 10 12 13 13 13 13 12 11 12 11 9 7 9 8 6 6 9 11 11 13 14 15 13 10 10 9 6 4 1 4 11 13 12 14 17 19 21 24
10 10 10 9 10 11 13 13 12 12 13 12 11 11 8 6 7 9 9 8 7 8 10 12 14 16 17 14 13 10 12 11 4 4 4 9 10 10 11 14 16 18 19
11 10 9 10 10 11 13 12 12 11 11 10 8 7 6 7 8 10 11 11 10 8 8 11 14 17 17 17 15 12 12 12 14 4 6 7 8 9 12 13 13 15 16
11 10 10 10 11 12 12 12 12 13 12 10 7 6 6 7 8 11 13 13 9 6 7 11 13 16 18 16 14 12 11 11 13 11 11 6 6 7 10 9 13 15 16
12 10 9 11 11 11 10 13 13 13 12 11 9 7 6 5 7 12 13 13 7 5 8 11 13 16 12 14 11 11 12 12 7 9 7 5 3 2 4 6 10 13 17
15 14 12 13 11 10 10 12 13 14 14 13 11 11 10 6 9 11 13 11 4 5 9 12 14 13 14 13 12 10 8 7 6 5 8 4 4 4 1 3 4 3 4
15 15 16 15 13 9 11 11 12 14 15 14 13 12 10 9 13 14 11 11 4 6 9 12 13 13 13 12 10 8 5 3 2 4 11 4 3 4 5 7 11 12 8
16 17 16 15 12 10 10 12 13 14 12 11 12 12 12 11 16 12 9 10 5 6 8 10 12 13 12 10 6 5 7 4 3 7 8 4 4 5 7 10 14 13 11
18 16 15 13 13 12 14 13 13 14 10 10 11 10 10 9 13 8 7 4 5 7 7 11 13 11 9 5 6 9 14 16 11 11 9 8 7 7 8 4 5 8 7
14 13 11 11 11 10 9 10 12 13 11 8 7 7 8 9 11 13 12 9 8 10 10 13 13 10 7 6 9 11 15 14 14 14 14 13 11 9 5 5 7 8 6
11 10 11 9 9 11 11 11 12 11 10 8 6 7 8 10 9 14 13 9 9 8 10 13 13 13 13 12 12 13 13 14 16 15 13 11 12 16 14 10 8 7 7
10 10 11 9 10 10 11 12 12 13 11 9 7 7 7 7 12 12 12 11 10 10 9 12 16 16 18 17 17 14 14 13 11 12 13 13 13 14 13 14 15 15 13
12 12 11 10 11 12 10 10 14 13 11 9 9 9 10 11 12 13 13 12 12 14 12 13 16 18 19 19 17 15 12 11 11 14 14 15 14 13 17 19 16 15 16
10 11 11 11 11 12 11 12 12 14 9 9 10 10 11 12 17 16 14 14 13 14 15 15 15 16 17 16 17 19 18 18 19 17 15 13 16 11 12 12 15 14 15
12 13 11 12 11 10 11 16 14 14 12 11 10 12 11 15 17 15 15 12 10 11 11 13 14 15 16 16 16 17 16 18 19 18 17 13 10 10 11 10 10 10 13
11 11 13 11 12 14 13 14 18 18 18 18 17 14 14 14 13 14 13 12 13 13 17 18 19 19 20 20 20 20 20 16 14 13 11 9 9 9 9 8 9 9 10
12 12 14 15 13 10 10 12 9 14 20 19 19 18 16 13 13 15 18 20 21 21 23 19 17 17 16 16 16 14 12 8 7 11 10 10 9 8 8 10 9 9 8
12 14 13 15 14 12 13 13 13 13 13 13 16 18 18 16 15 17 18 19 22 26 25 21 17 13 14 16 17 17 16 15 13 12 11 10 10 9 9 8 8 7 7
13 12 13 16 17 18 18 17 16 16 16 17 19 22 24 26 25 23 23 21 19 18 17 17 18 18 18 17 15 14 13 11 11 10 9 8 7 7 6 6 6 5 4
13 14 13 15 17 18 18 18 18 19 19 18 17 12 12 17 18 19 19 19 21 20 20 19 17 16 15 14 13 12 11 11 11 10 9 7 7 8 8 6 7 9 8
13 15 17 19 18 18 17 19 19 21 18 18 18 16 17 21 22 23 22 21 20 19 17 17 16 16 15 14 14 14 14 14 13 12 11 11 10 9 7 7 9 8 10
12 16 16 19 21 21 20 20 18 16 14 15 16 20 21 23 22 20 19 18 17 17 17 17 18 18 17 16 16 15 15 14 14 13 13 12 12 10 10 10 11 12 14
16 16 17 14 13 12 17 17 15 15 17 20 20 21 22 21 20 20 19 18 18 18 19 20 19 19 18 17 18 18 15 15 14 15 14 14 13 12 11 11 12 12 13
15 14 15 14 13 17 18 18 18 20 19 19 19 19 19 19 18 19 18 18 18 18 18 19 21 23 21 20 19 19 20 17 14 15 15 15 15 13 13 12 13 12 12
15 15 15 13 16 16 16 19 18 16 17 18 18 18 18 19 19 19 18 18 18 19 20 20 19 20 21 22 22 21 20 19 17 17 15 14 14 14 14 14 13 13 13
12 12 13 14 15 15 13 13 14 16 17 17 17 17 18 18 18 18 18 18 18 19 19 20 21 20 20 21 21 20 20 19 19 19 14 15 15 15 14 14 13 13 13
Wind_Direction
345 343 337 334 327 322 318 313 305 297 297 294 294 290 292 300 305 314 312 313 341 330 324 336 340 342 340 327 326 316 311 292 287 83 79 74 62 58 61 67 65 60 55
336 332 326 325 323 321 318 310 307 301 302 295 291 297 303 325 316 319 311 305 290 307 322 329 340 342 337 326 322 326 310 317 296 265 87 82 69 59 62 63 67 64 56
332 323 318 326 324 323 321 321 319 315 317 318 319 335 350 340 333 326 315 305 293 292 313 318 327 337 336 332 324 324 323 324 325 258 118 110 79 55 56 58 59 59 57
324 315 329 333 330 332 332 335 337 337 332 332 335 347 353 345 357 343 329 321 302 299 311 315 321 330 333 327 322 319 327 337 346 121 121 107 89 67 64 55 54 54 54
323 324 322 328 328 329 342 347 343 338 333 327 324 330 333 341 12 347 333 332 320 310 315 316 321 325 320 326 322 321 325 344 11 124 122 116 136 48 72 69 75 65 55
334 329 331 322 319 332 339 342 346 343 343 339 334 329 331 357 345 343 336 323 329 316 320 322 322 327 337 328 325 319 314 332 356 127 129 136 77 92 129 287 193 184 60
331 324 322 318 326 327 337 345 351 346 343 343 340 346 348 343 335 328 322 311 289 299 317 326 331 332 334 332 325 335 345 338 3 109 157 145 113 140 79 67 80 87 79
333 330 337 332 326 337 351 355 350 348 341 339 358 359 355 340 331 323 306 312 306 308 328 342 341 331 330 334 2 37 48 49 72 127 154 138 101 103 93 92 101 96 78
346 339 349 357 9 9 2 357 345 337 343 7 349 351 353 344 349 360 343 327 330 8 10 356 351 353 4 36 86 74 79 75 93 117 113 104 92 83 110 73 111 110 91
347 348 359 10 18 11 348 343 346 355 2 358 3 13 359 16 26 25 17 22 26 19 10 14 22 33 57 85 92 93 87 91 101 106 99 84 68 55 84 63 103 117 124
9 9 17 21 0 359 350 355 358 355 4 12 19 19 32 36 30 26 30 36 30 25 31 37 48 62 78 87 94 96 97 105 101 93 85 74 67 66 57 80 89 88 96
22 17 15 4 353 356 3 11 20 13 20 31 43 35 37 47 39 28 36 40 50 52 56 63 69 77 81 80 80 83 88 81 84 80 72 67 66 66 66 72 76 83 73
14 13 6 8 11 12 15 21 17 23 28 32 33 40 39 37 38 28 42 57 68 73 76 82 81 80 78 69 67 69 71 74 81 80 79 79 77 82 83 76 73 74 73
11 7 13 18 23 32 34 22 22 24 33 37 37 39 46 38 31 41 55 72 82 81 79 74 69 64 63 67 67 64 74 84 89 85 85 88 97 79 67 77 79 80 77
31 31 26 32 38 37 34 34 54 55 51 49 42 45 35 33 37 50 60 61 58 57 66 68 67 65 63 63 66 74 74 93 86 84 94 91 73 83 83 82 76 77 80
24 31 37 39 43 59 63 61 66 64 63 61 59 58 47 54 55 60 59 70 75 82 78 69 67 67 70 72 75 87 98 96 82 82 91 82 73 76 80 76 69 70 79
41 44 49 47 49 47 55 53 65 61 54 53 56 57 57 62 66 68 72 78 81 81 73 69 73 74 71 80 85 84 81 76 90 76 73 70 72 73 74 74 73 78 82
53 51 45 49 50 55 58 54 50 46 47 40 45 52 61 66 77 81 83 77 69 72 79 80 73 76 83 80 77 75 73 70 66 66 67 65 64 66 72 77 75 72 79
53 48 53 61 63 68 70 67 61 56 52 57 70 72 75 71 73 79 78 76 78 76 80 80 78 75 73 68 62 56 49 46 38 35 35 35 26 31 49 58 94 79 311
61 57 58 63 69 74 68 62 59 58 59 55 54 36 54 72 74 76 74 79 81 80 78 73 68 65 60 56 50 47 47 43 39 40 38 27 18 9 28 12 15 0 5
68 67 69 83 74 74 71 70 73 76 63 54 54 58 69 70 70 72 72 66 64 63 57 55 53 48 45 41 39 35 39 40 33 28 27 28 24 25 18 13 19 22 28
73 79 85 86 82 78 78 73 64 59 57 60 71 64 67 70 68 65 62 57 55 51 44 42 47 44 43 39 30 32 34 32 26 19 20 20 15 18 18 21 24 26 18
88 92 86 78 72 73 71 73 71 68 69 67 66 65 65 64 62 60 57 55 53 52 50 48 43 41 38 35 32 29 28 27 27 21 23 26 34 27 35 35 32 42 39
88 88 81 73 71 74 71 68 66 68 68 66 63 61 60 60 58 56 55 55 55 54 51 49 46 44 42 40 38 36 35 37 30 31 34 37 38 38 41 40 44 38 38
76 80 81 76 71 74 73 81 65 66 66 63 62 62 62 62 61 59 57 57 56 55 51 49 47 44 41 41 42 41 40 45 46 43 38 40 41 44 42 43 42 42 36
75 74 79 81 81 76 73 69 66 67 66 65 64 64 64 62 59 57 55 54 55 54 53 49 44 42 39 36 39 38 38 45 45 39 37 40 41 35 36 37 33 33 31